Temperature
-2 -2 -2 -2 -2 -2 -1 -0 0 1 2 3 4 5 7 8 9 9 10 11 12 12 13 13 14 14 14 15 15 15 15 15 16 16 16 16 16 16 16 16 16 16 16
-3 -3 -3 -4 -4 -4 -3 -3 -2 -1 -0 1 2 3 5 6 8 9 10 10 11 12 12 13 13 14 14 14 15 15 15 15 15 16 16 16 16 16 16 16 16 16 16
-4 -4 -4 -5 -5 -5 -5 -4 -4 -3 -2 -1 1 2 3 5 6 8 9 10 10 11 12 12 13 13 13 14 14 15 15 15 15 15 15 16 16 16 16 16 16 16 16
-5 -5 -5 -6 -6 -6 -6 -6 -6 -5 -4 -3 -1 1 2 3 5 6 7 9 9 10 11 11 12 12 13 13 14 14 14 15 15 15 15 15 16 16 16 16 16 16 16
-5 -6 -6 -7 -7 -7 -7 -7 -7 -7 -6 -5 -4 -2 0 2 4 5 6 7 8 9 10 10 11 12 12 12 13 13 14 14 14 14 14 14 15 15 16 16 16 16 16
-6 -7 -7 -8 -8 -8 -8 -8 -8 -7 -7 -7 -6 -4 -2 1 2 3 5 6 7 8 9 9 10 11 11 12 12 13 13 14 14 14 14 14 14 15 15 15 15 16 15
-7 -7 -8 -8 -9 -9 -9 -9 -9 -8 -8 -7 -7 -6 -2 -0 1 2 3 4 5 6 8 9 9 10 10 11 12 12 13 13 14 14 14 14 14 14 14 15 15 15 16
-8 -9 -9 -9 -10 -10 -10 -10 -9 -9 -9 -8 -7 -7 -5 -3 -1 1 2 2 3 4 6 8 8 9 10 10 11 11 12 12 13 14 14 14 14 14 14 14 15 15 16
-9 -9 -10 -10 -10 -10 -11 -10 -10 -10 -9 -8 -7 -7 -6 -5 -5 -2 -0 1 2 3 4 6 7 8 9 9 10 11 11 12 12 13 14 14 14 14 14 14 15 15 15
-9 -10 -10 -11 -11 -11 -11 -11 -11 -10 -10 -9 -8 -7 -7 -6 -6 -5 -3 -1 -0 1 3 4 6 7 8 9 10 10 11 11 12 12 13 14 14 14 14 14 14 15 15
-10 -11 -11 -11 -11 -11 -11 -11 -11 -10 -10 -9 -9 -8 -7 -6 -6 -6 -5 -4 -2 -0 1 3 5 7 8 9 9 10 10 11 11 12 13 13 14 14 14 14 14 15 15
-11 -11 -12 -12 -12 -12 -12 -12 -11 -11 -10 -9 -9 -8 -7 -7 -6 -6 -6 -5 -5 -2 -0 2 4 6 7 8 9 10 10 11 11 11 12 13 13 14 14 14 14 14 15
-12 -12 -13 -13 -13 -13 -12 -12 -11 -11 -10 -10 -9 -8 -8 -7 -7 -7 -6 -6 -5 -4 -2 1 3 4 6 7 8 9 10 10 11 11 12 12 13 13 13 14 14 14 15
-13 -13 -13 -13 -13 -13 -12 -12 -12 -11 -10 -10 -9 -9 -8 -8 -7 -7 -7 -6 -5 -4 -3 -2 1 3 5 6 8 8 9 10 10 11 11 12 12 13 13 13 14 14 14
-14 -14 -14 -14 -14 -13 -13 -12 -12 -11 -10 -10 -9 -9 -8 -8 -7 -7 -7 -6 -5 -4 -4 -3 -1 1 3 5 7 8 9 10 10 10 11 11 12 12 12 13 13 14 14
-14 -14 -14 -14 -14 -13 -13 -13 -12 -11 -10 -9 -9 -9 -8 -8 -7 -7 -7 -6 -5 -5 -4 -3 -2 -1 2 4 6 7 8 9 9 10 10 11 11 12 12 12 13 13 13
-14 -14 -14 -14 -14 -13 -13 -12 -12 -11 -10 -9 -9 -9 -8 -8 -7 -7 -6 -6 -5 -5 -4 -3 -3 -1 0 3 4 5 7 8 9 9 10 10 11 11 11 12 12 12 13
-14 -14 -14 -14 -13 -13 -13 -12 -11 -10 -10 -9 -9 -9 -8 -8 -7 -7 -6 -6 -5 -5 -4 -3 -3 -2 -0 1 3 4 5 7 8 9 9 10 10 11 11 11 12 12 12
-14 -14 -13 -13 -13 -13 -12 -11 -11 -10 -9 -9 -9 -9 -8 -8 -8 -7 -7 -6 -5 -5 -4 -3 -3 -2 -1 1 1 3 4 6 7 8 9 9 10 10 11 11 11 12 12
-13 -13 -13 -13 -13 -12 -11 -10 -10 -9 -9 -9 -9 -9 -9 -8 -8 -8 -7 -7 -6 -5 -4 -3 -3 -2 -1 -0 0 2 3 5 6 8 8 9 10 10 11 11 11 12 12
-13 -13 -13 -12 -12 -11 -10 -9 -9 -9 -9 -9 -9 -9 -9 -9 -9 -8 -8 -8 -7 -6 -5 -4 -3 -2 -1 -0 0 1 2 4 6 7 8 9 9 10 10 10 11 11 12
-13 -13 -12 -12 -11 -11 -9 -10 -10 -10 -10 -10 -10 -9 -9 -9 -9 -9 -9 -8 -8 -7 -7 -5 -4 -3 -2 -1 0 1 2 3 5 7 7 8 8 9 10 10 11 11 11
-13 -13 -12 -12 -11 -11 -10 -10 -10 -10 -10 -10 -10 -10 -10 -10 -10 -9 -9 -8 -8 -8 -8 -7 -6 -5 -3 -2 -0 1 2 3 4 6 7 7 8 8 9 10 10 11 11
-13 -13 -13 -12 -12 -11 -11 -11 -11 -11 -11 -11 -11 -11 -11 -10 -10 -10 -10 -9 -9 -8 -8 -7 -7 -6 -5 -3 -2 0 2 3 4 5 6 6 7 7 8 8 9 10 10
-13 -13 -13 -13 -12 -12 -11 -11 -12 -11 -11 -11 -11 -11 -11 -11 -11 -11 -10 -10 -9 -9 -8 -8 -7 -6 -5 -4 -2 -0 1 2 3 4 5 6 6 7 7 7 8 8 9
-13 -13 -13 -13 -13 -13 -12 -12 -12 -12 -12 -12 -12 -12 -12 -12 -12 -11 -11 -11 -11 -10 -8 -7 -7 -6 -5 -4 -3 -1 0 2 3 4 5 5 6 6 6 6 7 7 8
Wind_Speed
19 20 20 20 21 21 21 20 19 20 19 20 20 20 19 19 20 19 17 23 25 24 23 24 26 28 29 28 28 29 30 28 27 26 25 24 24 24 24 24 24 24 24
21 20 19 19 19 22 22 20 20 16 15 16 16 18 19 19 18 20 20 20 23 24 23 22 24 27 28 27 27 28 30 30 29 27 26 26 25 24 24 25 25 24 24
23 21 17 16 19 22 22 20 18 16 13 13 16 16 16 16 17 19 20 18 18 20 22 21 21 25 27 26 25 26 27 30 31 30 28 27 26 26 25 25 25 24 24
24 21 17 15 21 21 19 15 10 13 13 13 14 14 13 14 17 18 18 17 16 15 17 21 20 22 26 26 25 25 25 27 30 32 31 29 28 27 26 25 25 25 24
24 22 17 18 21 18 15 13 13 13 14 14 14 14 13 15 17 16 15 15 15 14 13 17 19 19 23 25 25 24 24 25 28 32 33 31 29 28 27 25 25 25 25
24 22 17 19 19 13 11 12 14 14 13 14 16 16 15 16 14 12 12 11 11 12 11 12 12 13 18 23 23 23 24 24 25 29 33 33 31 29 27 26 25 25 25
23 21 18 18 17 11 12 14 14 15 13 13 14 16 14 12 12 7 7 9 10 11 10 9 8 10 11 16 21 22 23 24 25 26 31 35 34 31 28 26 26 26 26
22 20 19 16 15 10 12 13 14 12 13 12 12 13 8 7 6 10 7 7 8 11 11 10 9 8 9 9 12 20 22 23 24 25 28 33 35 34 31 28 27 27 27
21 20 20 18 16 10 11 13 13 14 14 13 10 7 7 5 13 7 6 6 8 10 10 10 9 11 11 9 11 15 20 23 24 24 27 31 35 35 33 30 29 28 27
20 20 21 19 16 13 11 12 13 13 14 13 11 8 9 10 7 8 7 6 8 10 10 11 11 10 11 10 11 15 18 21 24 25 26 29 33 35 35 32 31 29 28
18 20 20 18 16 13 10 11 13 13 12 13 11 11 10 9 9 9 14 13 11 7 8 11 10 9 9 10 9 12 17 19 23 24 24 27 31 35 35 34 33 30 29
12 18 20 18 17 14 12 12 11 14 13 14 12 10 10 8 8 8 12 16 16 12 12 9 9 8 7 8 11 15 16 19 21 22 22 23 28 32 34 33 33 31 30
10 11 18 16 15 16 16 14 12 13 14 14 13 11 10 9 9 10 12 14 16 14 8 8 7 6 8 7 10 16 15 19 19 20 20 20 23 27 30 32 33 32 32
11 15 18 18 18 18 18 14 12 13 12 13 14 13 10 9 9 10 10 12 14 13 8 7 8 7 6 6 10 16 11 15 18 18 19 19 20 22 25 28 31 33 32
16 19 19 17 17 17 15 12 11 13 13 13 13 13 10 9 9 10 10 10 11 13 13 8 5 5 6 6 12 13 12 13 14 16 17 18 19 20 21 23 26 29 31
17 16 15 14 14 14 13 12 12 13 14 13 12 12 11 9 9 10 10 10 10 12 13 8 8 10 11 13 16 14 14 17 12 13 14 15 16 17 18 20 22 25 27
16 14 14 14 15 15 13 13 14 15 14 14 13 12 12 12 10 9 10 10 10 10 14 13 10 9 11 11 11 10 12 9 6 9 12 14 14 14 15 16 18 21 24
16 16 15 15 16 16 15 15 15 15 14 14 13 12 12 10 11 10 9 9 9 10 11 14 10 8 10 9 9 11 11 8 5 7 10 12 13 14 14 14 16 18 22
14 16 15 16 17 17 17 15 15 14 13 12 10 9 10 10 11 10 9 9 8 9 9 10 10 7 6 6 7 9 11 8 5 5 7 10 12 14 14 14 15 16 20
13 15 17 18 19 19 18 16 13 10 7 7 7 8 9 10 11 11 9 10 10 9 9 8 7 6 5 5 4 6 7 5 4 2 3 5 9 13 14 15 16 17 18
15 15 17 19 20 17 14 9 5 6 6 7 8 9 10 15 20 16 12 12 12 10 9 8 6 5 4 3 3 3 6 5 3 2 2 3 4 5 7 12 15 17 18
14 15 17 18 21 18 22 25 19 14 12 11 11 11 11 12 19 22 23 21 19 14 12 10 7 6 5 4 4 3 4 4 3 2 3 2 3 4 5 5 13 18 19
13 14 16 17 19 23 29 28 27 17 15 14 13 12 13 15 15 11 17 21 19 22 20 13 10 10 8 7 7 5 4 3 2 2 3 2 2 3 2 5 15 19 21
11 11 12 16 17 22 28 25 23 15 13 14 14 14 13 14 16 15 13 13 12 13 17 12 10 11 11 10 7 6 5 4 2 0 2 3 2 3 3 3 15 21 24
8 10 11 13 15 19 27 23 20 9 11 12 13 16 16 13 25 25 17 15 14 13 18 22 20 18 19 19 14 5 3 3 2 1 2 3 4 4 5 4 10 24 30
9 11 12 11 13 14 24 24 19 10 11 11 11 14 21 22 26 26 16 15 16 14 15 16 16 17 15 15 18 9 5 3 1 2 1 3 4 4 5 5 8 13 22
Wind_Direction
356 353 348 344 342 342 339 333 331 330 331 328 326 326 322 318 313 311 310 309 309 305 302 279 250 234 226 221 214 209 204 203 202 201 197 194 192 191 191 190 187 185 185
354 351 345 342 343 341 335 331 325 327 326 324 322 321 317 313 310 311 307 305 306 305 305 296 258 236 227 222 218 213 208 205 204 201 199 195 192 191 191 191 189 187 186
353 349 341 342 343 340 335 332 325 327 322 321 319 317 313 311 310 307 304 299 298 301 300 304 278 245 232 225 221 217 213 211 207 202 199 196 193 190 190 189 189 188 187
352 347 340 343 342 340 338 332 329 327 322 319 316 313 310 309 306 301 298 294 292 292 294 296 295 264 242 232 226 222 219 216 212 205 200 197 193 190 189 187 187 187 187
349 345 339 343 343 340 337 333 332 326 322 319 315 310 309 305 298 296 296 295 291 285 284 289 291 283 257 241 232 227 225 222 218 210 202 198 195 191 189 187 186 186 187
347 344 343 343 342 339 336 332 328 326 320 318 316 312 304 294 288 288 294 301 298 292 284 282 283 285 269 248 238 231 228 227 223 216 206 199 196 193 190 188 186 186 187
345 342 344 340 339 335 331 329 329 324 323 321 319 316 302 282 279 294 313 314 326 342 324 297 280 274 274 259 244 236 231 229 226 220 210 202 196 191 190 190 190 188 187
342 343 340 336 335 332 328 330 327 326 322 324 318 317 315 311 333 315 302 308 338 336 329 327 319 301 277 267 251 238 233 232 230 223 215 206 197 191 189 191 194 192 188
336 336 334 332 332 330 327 326 323 326 320 316 310 308 312 316 324 298 293 316 336 326 327 327 333 332 320 281 257 243 232 230 231 227 218 210 201 193 190 191 194 195 190
331 334 331 330 330 327 323 323 326 318 316 313 312 296 294 301 301 309 309 314 317 319 319 327 326 320 318 314 275 251 238 229 229 229 222 213 207 200 194 192 195 196 192
328 331 328 329 328 325 320 318 319 317 315 309 308 305 300 296 281 291 302 310 315 308 313 312 307 305 305 303 298 266 246 235 229 227 225 217 211 206 199 195 194 195 192
324 326 327 327 325 323 320 317 317 314 311 308 306 303 302 301 302 301 296 303 305 308 308 299 294 292 295 300 305 296 264 241 230 221 220 218 213 209 204 198 194 193 191
327 319 325 323 321 320 318 317 315 312 309 307 307 304 301 300 300 298 295 297 298 303 299 294 285 297 302 308 306 303 276 246 230 219 213 214 212 211 208 202 195 193 193
322 319 322 318 317 318 318 314 311 308 307 306 306 305 302 300 299 296 293 295 296 297 293 284 298 281 286 303 316 320 296 252 228 217 210 208 207 207 208 206 198 194 193
323 323 319 315 314 314 311 310 308 306 306 303 304 302 300 298 297 294 289 283 284 292 296 294 295 306 331 324 325 329 316 281 235 213 205 202 203 204 204 205 202 197 193
321 318 317 315 313 312 309 308 306 304 304 302 303 301 301 298 296 292 288 284 277 277 280 285 294 307 313 309 311 320 313 303 253 212 197 193 195 198 200 201 202 200 196
319 319 319 316 314 311 309 307 304 303 302 303 305 304 304 301 298 294 290 283 278 276 277 284 283 288 288 291 300 306 307 300 272 217 192 185 186 190 192 195 197 196 193
321 322 321 318 316 314 311 306 302 301 299 300 303 306 310 314 311 305 300 293 288 280 280 284 286 281 276 280 290 297 303 296 271 222 190 181 183 187 189 192 194 193 189
324 325 325 322 319 315 311 303 296 292 292 296 305 316 321 330 333 331 326 326 318 307 293 286 285 278 272 273 279 288 289 285 269 226 193 186 186 189 191 193 193 192 189
329 329 329 327 323 317 311 300 295 295 299 313 326 334 342 350 352 346 348 351 341 330 320 302 287 278 268 255 245 266 279 277 265 226 179 175 186 191 194 195 195 192 190
340 335 335 335 334 332 328 339 348 17 25 9 2 358 1 15 11 8 9 6 358 354 350 338 316 295 282 265 232 236 255 265 258 212 170 170 170 179 190 198 196 192 189
340 340 341 341 345 351 19 43 49 39 33 24 14 4 6 14 17 11 11 14 12 9 6 359 346 333 331 329 315 270 245 236 225 195 155 161 158 174 181 189 190 186 185
341 342 343 347 350 358 25 42 43 37 29 21 13 10 13 9 22 11 6 10 10 11 13 7 355 346 339 339 329 308 272 240 220 181 137 148 134 154 150 179 179 176 172
340 341 342 349 353 360 21 38 35 28 23 18 12 8 11 5 16 20 5 4 6 5 4 3 358 350 347 344 326 296 291 288 282 4 111 134 121 107 92 132 161 158 152
338 341 347 349 353 354 12 33 35 14 17 11 10 9 13 11 14 19 12 4 5 3 1 2 4 3 1 358 360 336 289 232 192 142 54 118 118 91 70 83 128 136 135
345 348 349 349 349 349 6 26 39 24 16 11 9 6 9 16 14 18 16 7 8 2 355 354 357 358 357 356 3 2 341 298 196 147 153 121 125 114 82 52 96 117 122
Height
1521 1516 1512 1507 1503 1498 1494 1489 1485 1481 1478 1475 1472 1470 1468 1466 1466 1466 1466 1467 1468 1469 1470 1472 1475 1478 1482 1486 1490 1494 1499 1503 1506 1510 1513 1517 1521 1524 1528 1532 1536 1541 1544
1520 1514 1509 1504 1499 1495 1490 1486 1481 1476 1472 1469 1466 1463 1461 1459 1458 1457 1458 1459 1460 1461 1463 1465 1468 1471 1475 1478 1483 1487 1491 1496 1500 1504 1508 1512 1516 1520 1524 1528 1532 1537 1541
1518 1512 1507 1501 1496 1491 1486 1482 1477 1472 1468 1463 1460 1457 1454 1452 1450 1450 1450 1451 1452 1454 1456 1458 1461 1464 1468 1471 1475 1479 1484 1488 1493 1498 1502 1506 1510 1514 1519 1523 1527 1532 1537
1515 1509 1504 1499 1493 1488 1483 1478 1473 1468 1463 1458 1453 1450 1447 1445 1443 1443 1443 1443 1444 1446 1448 1451 1454 1457 1461 1465 1468 1472 1476 1481 1486 1491 1495 1500 1504 1509 1513 1518 1522 1527 1532
1512 1507 1501 1496 1490 1485 1480 1475 1470 1465 1459 1454 1449 1444 1441 1438 1437 1436 1436 1436 1436 1438 1440 1443 1446 1449 1453 1458 1461 1465 1469 1474 1478 1483 1487 1492 1498 1503 1508 1512 1517 1522 1527
1509 1504 1498 1493 1487 1482 1476 1472 1467 1462 1458 1452 1446 1440 1435 1432 1431 1430 1429 1429 1430 1431 1433 1436 1439 1442 1446 1451 1455 1458 1462 1467 1471 1476 1480 1484 1490 1497 1503 1508 1513 1518 1522
1506 1501 1495 1489 1484 1479 1474 1469 1464 1459 1454 1450 1444 1435 1428 1427 1425 1424 1423 1424 1423 1423 1425 1428 1431 1434 1438 1443 1448 1452 1456 1460 1465 1469 1474 1478 1483 1490 1496 1503 1509 1514 1518
1503 1498 1492 1486 1481 1475 1470 1466 1461 1456 1451 1449 1444 1437 1429 1423 1420 1419 1418 1417 1417 1417 1418 1421 1424 1427 1430 1435 1440 1445 1449 1454 1458 1463 1468 1473 1478 1484 1490 1496 1503 1509 1513
1500 1495 1489 1483 1478 1472 1467 1462 1458 1454 1449 1446 1444 1442 1435 1428 1420 1411 1412 1412 1412 1412 1412 1414 1417 1420 1424 1428 1433 1438 1443 1447 1452 1457 1462 1467 1473 1478 1484 1490 1496 1503 1508
1497 1491 1485 1479 1474 1468 1463 1459 1455 1451 1447 1443 1440 1438 1436 1432 1427 1415 1407 1406 1407 1407 1407 1408 1411 1415 1419 1422 1426 1431 1436 1441 1446 1450 1455 1461 1466 1472 1478 1484 1490 1498 1503
1493 1487 1481 1475 1470 1464 1459 1455 1451 1447 1444 1440 1437 1434 1431 1428 1425 1421 1410 1402 1401 1401 1402 1402 1404 1409 1414 1417 1420 1424 1429 1434 1439 1444 1449 1454 1460 1466 1472 1478 1485 1491 1497
1487 1482 1477 1471 1465 1460 1454 1450 1446 1442 1439 1436 1433 1430 1428 1425 1421 1418 1413 1404 1398 1395 1396 1397 1398 1402 1407 1410 1414 1418 1422 1427 1433 1438 1442 1448 1454 1460 1466 1472 1479 1485 1492
1482 1477 1472 1466 1461 1455 1450 1445 1441 1437 1434 1431 1428 1425 1423 1421 1418 1415 1411 1405 1398 1393 1392 1391 1394 1396 1400 1404 1408 1412 1416 1420 1426 1432 1436 1442 1448 1454 1460 1467 1473 1480 1486
1479 1473 1468 1462 1456 1451 1445 1440 1436 1432 1429 1426 1424 1421 1419 1416 1414 1411 1408 1404 1398 1392 1389 1388 1388 1391 1395 1398 1402 1405 1409 1415 1420 1426 1431 1436 1441 1448 1454 1461 1467 1473 1480
1476 1470 1464 1458 1452 1446 1441 1436 1431 1428 1425 1422 1419 1417 1415 1412 1409 1406 1404 1402 1399 1392 1386 1384 1385 1387 1389 1392 1396 1399 1403 1408 1414 1420 1425 1430 1435 1441 1448 1454 1461 1468 1475
1474 1467 1460 1453 1447 1441 1436 1431 1427 1424 1421 1418 1416 1413 1411 1408 1404 1401 1399 1396 1395 1392 1386 1381 1383 1383 1384 1386 1390 1393 1397 1402 1407 1413 1419 1424 1430 1435 1442 1448 1455 1461 1468
1471 1464 1457 1450 1443 1437 1431 1427 1423 1420 1417 1414 1412 1410 1407 1404 1400 1397 1394 1391 1389 1387 1383 1378 1380 1379 1380 1382 1385 1389 1392 1397 1402 1408 1413 1419 1424 1430 1436 1442 1449 1455 1462
1470 1463 1455 1447 1440 1433 1427 1422 1418 1416 1413 1411 1409 1407 1404 1401 1397 1393 1389 1386 1384 1382 1380 1376 1376 1376 1376 1378 1380 1383 1387 1392 1397 1402 1408 1413 1419 1424 1430 1436 1443 1450 1457
1469 1462 1453 1445 1436 1429 1422 1418 1414 1412 1411 1410 1408 1406 1403 1399 1395 1391 1386 1382 1379 1377 1375 1373 1372 1373 1374 1375 1377 1380 1383 1387 1392 1397 1403 1408 1413 1419 1424 1430 1437 1445 1451
1469 1461 1453 1444 1434 1425 1418 1413 1411 1410 1410 1410 1408 1405 1402 1399 1394 1390 1385 1381 1377 1373 1371 1369 1369 1370 1371 1373 1375 1377 1380 1384 1388 1393 1398 1403 1409 1414 1419 1425 1432 1439 1446
1471 1463 1454 1444 1434 1424 1417 1414 1412 1412 1412 1411 1409 1406 1403 1399 1395 1390 1385 1380 1375 1371 1368 1366 1366 1367 1369 1370 1372 1375 1378 1381 1384 1388 1394 1399 1404 1408 1413 1419 1426 1432 1440
1471 1464 1456 1447 1437 1429 1424 1420 1417 1416 1415 1413 1410 1407 1404 1399 1394 1389 1384 1380 1376 1372 1368 1365 1365 1365 1366 1367 1369 1372 1376 1378 1381 1384 1389 1395 1400 1404 1409 1415 1420 1427 1435
1473 1466 1459 1452 1444 1437 1433 1428 1425 1422 1419 1416 1413 1409 1406 1402 1396 1390 1384 1380 1375 1371 1369 1366 1364 1364 1364 1364 1365 1368 1371 1374 1377 1381 1386 1391 1396 1401 1405 1410 1416 1423 1430
1475 1469 1463 1457 1450 1445 1440 1435 1431 1427 1424 1420 1416 1412 1408 1403 1399 1392 1386 1380 1375 1371 1369 1366 1364 1362 1361 1362 1363 1365 1367 1370 1374 1378 1383 1388 1393 1398 1403 1407 1413 1419 1425
1477 1471 1466 1461 1455 1450 1446 1440 1435 1431 1427 1423 1419 1415 1411 1406 1401 1394 1388 1382 1377 1373 1369 1366 1363 1360 1359 1359 1359 1361 1363 1367 1370 1374 1379 1384 1390 1396 1401 1406 1411 1417 1423
1479 1474 1470 1465 1460 1454 1450 1445 1439 1434 1430 1426 1421 1417 1413 1409 1403 1397 1390 1384 1379 1374 1370 1366 1362 1359 1357 1356 1356 1357 1359 1363 1367 1372 1376 1381 1386 1392 1399 1406 1411 1416 1423